Terug naar catalogus

GORIZONT 12

ActiefCommunicatieGEO
NORAD 16769·PAYLOAD·🇷🇺 Russia

Gelanceerd Jun 10, 1986 vanaf Baikonur Cosmodrome

Loading…

TLE

VersSource: Space-Track

Epoch: Sep 14, 2026, 14:19 UTC

1 16769U 86044A   26257.59668110 -.00000362  00000-0  00000-0 0  9991
2 16769   9.9112 320.6081 0004958 308.2079  48.2598  1.00257145148158

Volg GORIZONT 12 in realtime met AllMySat

Download on the App Store